FW2082 Weather Reports


time (UTC)temp
C
wind
direction
speed
KPH
gust
KPH
rain 1hr
cm
rain 24hr
cm
rain mn
cm
humidity
%
barometer
mb
20260509033036 12 223 14.5 24.1 0.00 0.23 0.23 91 1005.4
20260509031536 12 245 11.3 22.5 0.00 0.23 0.23 91 1005.5
20260509030038 12 244 12.9 22.5 0.00 0.23 0.23 91 1005.5
20260509024537 12 229 12.9 24.1 0.03 0.23 0.23 91 1005.6
20260509023031 12 238 4.8 20.9 0.03 0.23 0.23 91 1005.6
20260509021531 12 248 14.5 24.1 0.03 0.23 0.23 91 1005.7
20260509020045 12 249 14.5 22.5 0.00 0.20 0.20 91 1005.5
20260509014541 12 229 9.7 16.1 0.00 0.20 0.20 91 1005.6
20260509013035 12 202 8.0 16.1 0.00 0.20 0.20 92 1005.6
20260509011526 12 222 9.7 16.1 0.00 0.20 0.20 92 1005.5
20260509010024 12 228 8.0 16.1 0.00 0.20 0.20 92 1005.5
20260509004524 12 230 8.0 14.5 0.03 0.20 0.20 92 1005.5
20260509003031 12 248 6.4 12.9 0.03 0.20 0.20 92 1005.6
20260509001522 12 245 9.7 16.1 0.03 0.20 0.20 92 1005.5
20260509000020 12 236 8.0 16.1 0.03 0.20 0.20 92 1005.7
20260508234520 12 229 8.0 22.5 0.00 0.18 0.18 92 1005.9
20260508233020 12 230 6.4 11.3 0.05 0.18 0.18 93 1005.9
20260508231519 12 221 0.0 3.2 0.10 0.18 0.18 93 1005.8
20260508230047 12 237 0.0 1.6 0.13 0.18 0.18 93 1005.7
20260508224516 12 234 0.0 6.4 0.18 0.18 0.18 92 1006.2
20260508223021 12 245 1.6 9.7 0.13 0.13 0.13 90 1006.4
20260508221514 13 266 3.2 9.7 0.08 0.08 0.08 88 1006.5
20260508220012 13 303 4.8 8.0 0.05 0.05 0.05 85 1006.2
20260508214515 13 309 8.0 14.5 0.00 0.00 0.00 81 1005.9
20260508213009 15 313 4.8 11.3 0.00 0.00 0.00 76 1005.7
20260508211508 15 307 6.4 9.7 0.00 0.00 0.00 75 1005.7
20260508210006 16 283 3.2 4.8 0.00 0.00 0.00 71 1006.0
20260508204504 16 229 3.2 16.1 0.00 0.00 0.00 70 1006.1
20260508203005 16 241 4.8 16.1 0.00 0.00 0.00 65 1006.2
20260508200055 17 257 6.4 14.5 0.00 0.00 0.00 64 1006.6
20260508194554 17 264 6.4 20.9 0.00 0.00 0.00 63 1006.6
20260508193055 17 273 8.0 17.7 0.00 0.00 0.00 61 1006.8
20260508191551 17 206 9.7 22.5 0.00 0.00 0.00 58 1006.8
20260508190050 17 265 11.3 27.4 0.00 0.00 0.00 59 1007.0
20260508184550 17 238 17.7 32.2 0.00 0.00 0.00 61 1006.8
20260508183049 18 244 11.3 27.4 0.00 0.00 0.00 60 1007.0
20260508183020 18 248 11.3 27.4 0.00 0.00 0.00 60 1007.0
20260508181556 18 242 19.3 33.8 0.00 0.00 0.00 57 1007.0
20260508180046 18 243 19.3 37.0 0.00 0.00 0.00 59 1007.0
20260508174553 18 227 20.9 32.2 0.00 0.00 0.00 61 1007.1
20260508173044 18 224 24.1 40.2 0.00 0.00 0.00 59 1007.5
20260508171539 18 245 22.5 38.6 0.00 0.00 0.00 58 1007.8
20260508170034 17 222 19.3 33.8 0.00 0.00 0.00 59 1008.0
20260508164531 16 225 16.1 25.7 0.00 0.00 0.00 61 1008.5
20260508163033 17 240 14.5 25.7 0.00 0.00 0.00 61 1008.8
20260508161529 17 244 14.5 24.1 0.00 0.00 0.00 61 1008.9
20260508151551 16 249 16.1 25.7 0.00 0.00 0.00 63 1009.4
20260508150048 15 223 11.3 20.9 0.00 0.00 0.00 65 1009.5
20260508144545 15 248 8.0 20.9 0.00 0.00 0.00 64 1009.7
20260508143039 14 278 6.4 27.4 0.00 0.00 0.00 64 1009.9
20260508141605 13 238 12.9 24.1 0.00 0.00 0.00 65 1010.1
20260508140033 13 228 9.7 30.6 0.00 0.00 0.00 66 1010.1
20260508134542 12 290 4.8 17.7 0.00 0.00 0.00 69 1010.2
20260508133027 12 212 8.0 19.3 0.00 0.00 0.00 68 1010.3
20260508131524 11 229 9.7 16.1 0.00 0.00 0.00 69 1010.3
20260508130020 11 232 8.0 12.9 0.00 0.00 0.00 69 1010.2
20260508124516 10 231 4.8 8.0 0.00 0.00 0.00 73 1010.4
20260508123023 10 228 3.2 8.0 0.00 0.00 0.00 74 1010.6
20260508121514 9 228 3.2 8.0 0.00 0.00 0.00 75 1010.5
20260508120013 9 233 3.2 6.4 0.00 0.00 0.00 76 1010.5
20260508114515 9 227 1.6 8.0 0.00 0.00 0.00 76 1010.4
20260508113010 8 233 3.2 6.4 0.00 0.00 0.00 76 1010.2
20260508111510 8 236 3.2 4.8 0.00 0.00 0.00 76 1010.1
20260508110008 8 313 0.0 6.4 0.00 0.00 0.00 77 1010.2
20260508104513 9 239 1.6 8.0 0.00 0.00 0.00 75 1009.9
20260508103007 8 242 0.0 3.2 0.00 0.00 0.00 75 1009.8
20260508101506 8 237 1.6 3.2 0.00 0.00 0.00 74 1009.8
20260508100006 8 232 3.2 6.4 0.00 0.00 0.00 75 1009.5
20260508094508 8 230 4.8 9.7 0.00 0.00 0.00 75 1009.5
20260508093005 8 227 6.4 9.7 0.00 0.00 0.00 75 1009.6
20260508091600 8 225 3.2 9.7 0.00 0.00 0.00 75 1009.8
20260508084557 10 233 6.4 16.1 0.00 0.00 0.00 72 1009.9
20260508083109 9 252 3.2 11.3 0.00 0.00 0.00 73 1010.0
20260508081602 10 248 3.2 14.5 0.00 0.00 0.00 73 1010.0
20260508080053 9 228 6.4 12.9 0.00 0.00 0.00 73 1010.0
20260508074553 10 226 8.0 12.9 0.00 0.00 0.00 71 1010.0
20260508073051 10 234 6.4 14.5 0.00 0.00 0.00 70 1010.0
20260508071550 10 231 9.7 17.7 0.00 0.00 0.00 69 1009.9
20260508070048 10 249 11.3 20.9 0.00 0.00 0.00 69 1010.1
20260508064546 10 241 11.3 20.9 0.00 0.00 0.00 70 1010.2
20260508063049 9 240 12.9 20.9 0.00 0.00 0.00 70 1010.2
20260508061543 9 244 9.7 16.1 0.00 0.00 0.00 70 1010.2
20260508060040 9 231 8.0 16.1 0.00 0.00 0.00 71 1010.4
20260508053035 10 236 4.8 12.9 0.00 0.00 0.00 72 1010.4
20260508051534 10 232 4.8 16.1 0.00 0.00 0.00 71 1010.5
20260508050032 10 219 9.7 16.1 0.00 0.00 0.00 72 1010.5
20260508044531 10 230 8.0 16.1 0.00 0.00 0.00 73 1010.6
20260508043027 9 233 8.0 14.5 0.00 0.00 0.00 73 1010.5
20260508041525 9 243 8.0 16.1 0.00 0.00 0.00 75 1010.5
20260508040022 9 231 11.3 17.7 0.00 0.00 0.00 74 1010.3
20260508034522 9 236 11.3 16.1 0.00 0.00 0.00 76 1010.3